This is the latest recevied weather packets stored in our database for station/object SV9TNF-57. If no packets are shown the sender has not sent any weather packets the latest 10 day(s).
| Time | Temp. | Humidity | Pressure | Rain* | Wind** | Luminosity | Snow |
|---|---|---|---|---|---|---|---|
| 1787970398 | 25.56° C | 69% | 995.1 hPa | 0 mm | 9.83 m/s, 348° | - | - |
| 1787970098 | 25.56° C | 68% | 995.3 hPa | 0 mm | 12.96 m/s, 308° | - | - |
| 1787969798 | 25.56° C | 68% | 995.2 hPa | 0 mm | 16.09 m/s, 309° | - | - |
| 1787969498 | 25.56° C | 67% | 995.2 hPa | 0 mm | 12.52 m/s, 347° | - | - |
| 1787969198 | 25.56° C | 67% | 995.1 hPa | 0 mm | 16.99 m/s, 353° | - | - |
| 1787968898 | 25.56° C | 67% | 995.1 hPa | 0 mm | 13.41 m/s, 16° | - | - |
| 1787968598 | 25.56° C | 68% | 995.1 hPa | 0 mm | 11.18 m/s, 354° | - | - |
| 1787968298 | 25.56° C | 69% | 994.8 hPa | 0 mm | 12.96 m/s, 355° | - | - |
| 1787967998 | 25.56° C | 70% | 994.9 hPa | 0 mm | 15.65 m/s, 354° | - | - |
| 1787967697 | 25.56° C | 70% | 995.1 hPa | 0 mm | 12.07 m/s, 101° | - | - |
| 1787967397 | 25.56° C | 70% | 995.2 hPa | 0 mm | 9.83 m/s, 212° | - | - |
| 1787967097 | 25.56° C | 69% | 995.1 hPa | 0 mm | 4.47 m/s, 5° | - | - |
| 1787966797 | 26.11° C | 69% | 995 hPa | 0 mm | 16.09 m/s, 341° | - | - |
| 1787966497 | 25.56° C | 68% | 995.2 hPa | 0 mm | 11.18 m/s, 303° | - | - |
| 1787966197 | 26.11° C | 67% | 995 hPa | 0 mm | 4.92 m/s, 340° | - | - |
| 1787965897 | 26.11° C | 65% | 995.1 hPa | 0 mm | 9.39 m/s, 339° | - | - |
| 1787965597 | 26.11° C | 64% | 994.9 hPa | 0 mm | 8.94 m/s, 339° | - | - |
| 1787965297 | 26.11° C | 63% | 994.9 hPa | 0 mm | 8.94 m/s, 359° | - | - |
| 1787964996 | 26.11° C | 63% | 994.9 hPa | 0 mm | 7.15 m/s, 12° | - | - |
| 1787964696 | 26.11° C | 63% | 994.8 hPa | 0 mm | 8.94 m/s, 342° | - | - |
| 1787964396 | 26.11° C | 64% | 995.2 hPa | 0 mm | 9.39 m/s, 324° | - | - |
| 1787964096 | 26.11° C | 64% | 994.8 hPa | 0 mm | 6.26 m/s, 265° | - | - |
| 1787963796 | 26.11° C | 67% | 995.2 hPa | 0 mm | 9.83 m/s, 9° | - | - |
| 1787963496 | 26.11° C | 67% | 995.2 hPa | 0 mm | 8.49 m/s, 339° | - | - |
| 1787963196 | 26.11° C | 69% | 995.2 hPa | 0 mm | 12.96 m/s, 348° | - | - |
* Rain latest hour (hover to see other rain measurements)
** Current wind speed in m/s (hover to see current wind gust speed)